SCP
1 1 1 1 1 0 0 0 0 0 0 0 0 0 0 0 0 0 0 0 0 0 0 0 0 1 1 1 1 1 1 1 0 0 0 0 0 0 0 0 0 0 0 0 0 0 0 0 0
1 1 1 1 1 0 0 0 0 0 0 0 0 0 0 0 0 0 0 0 0 0 0 0 0 0 0 1 1 1 1 1 0 0 0 0 0 0 0 0 0 0 0 0 0 0 0 0 0
1 1 1 1 0 0 0 0 0 0 0 0 0 0 0 0 0 0 0 0 0 0 0 1 1 0 0 0 0 1 0 0 0 0 0 0 0 0 0 0 0 0 0 0 0 0 0 0 0
1 1 1 1 0 0 0 0 0 0 0 0 0 0 0 0 0 0 0 0 0 0 1 1 1 1 0 0 0 0 0 0 0 0 0 0 0 0 0 0 0 0 0 0 0 0 0 0 0
1 1 1 0 0 0 0 0 0 0 0 0 0 0 0 0 0 0 0 0 0 0 1 1 1 1 0 0 0 0 0 0 0 0 0 0 0 0 0 0 0 0 0 0 0 0 0 0 0
1 1 0 0 0 0 0 0 0 0 0 0 0 0 0 0 0 0 0 0 0 0 1 1 1 1 1 0 0 0 0 0 0 0 0 0 0 0 0 0 0 0 0 0 0 0 0 0 0
1 1 0 0 0 0 0 0 0 0 0 0 0 0 0 1 0 0 0 0 0 0 1 1 1 1 1 0 0 0 0 0 0 0 0 0 0 0 0 0 0 0 0 0 0 0 0 0 0
1 0 0 0 0 0 0 0 0 0 1 1 0 0 1 1 1 1 0 0 0 0 1 1 1 1 1 0 0 0 0 0 0 0 0 0 0 0 0 0 0 0 0 0 0 0 0 0 0
1 0 0 0 0 0 0 0 0 0 1 1 1 1 1 1 1 1 1 1 0 0 1 1 1 1 1 0 0 0 0 0 0 0 0 0 0 0 0 0 0 0 0 0 0 0 0 0 0
0 0 0 0 0 0 0 0 0 1 1 1 1 1 1 1 1 1 1 1 1 1 1 1 1 1 1 1 0 0 0 0 0 0 0 0 0 0 0 0 0 0 0 0 0 0 0 0 0
0 0 0 0 0 0 0 1 1 1 1 1 1 2 2 2 1 1 1 1 1 1 1 1 1 1 1 1 1 1 1 1 0 0 0 0 0 0 0 0 0 0 0 0 0 0 0 0 0
0 0 0 0 0 0 0 1 1 1 1 1 2 2 2 2 1 1 1 1 1 1 1 1 1 1 1 1 1 1 1 1 1 1 0 0 0 0 0 0 0 0 0 0 0 0 0 0 0
0 0 0 0 0 0 0 1 1 1 1 2 3 3 2 2 1 1 1 1 1 1 1 1 1 1 1 1 1 1 1 1 1 1 1 0 0 0 0 0 0 0 0 0 0 0 0 0 0
0 0 0 0 0 0 0 0 1 1 2 3 4 4 3 2 1 1 1 1 1 1 1 1 1 1 1 1 1 1 1 1 1 1 1 1 1 1 1 0 0 0 0 0 0 0 0 0 0
0 0 0 0 0 0 0 0 0 1 2 3 4 4 2 1 1 1 1 2 2 1 1 1 1 1 2 1 1 1 1 1 1 1 1 1 1 1 1 1 0 0 0 0 0 0 0 0 0
0 0 0 0 0 0 0 0 0 1 2 3 4 3 2 1 1 1 1 2 2 2 2 1 1 2 2 2 1 1 1 1 1 1 1 1 1 1 1 1 1 1 1 1 1 0 0 0 0
0 0 0 0 0 0 0 0 0 1 1 2 3 2 2 1 1 1 1 2 2 2 2 1 1 2 2 2 1 1 1 1 1 1 1 1 1 1 1 1 1 1 1 1 1 1 0 0 0
0 0 0 0 0 0 0 0 0 1 1 2 2 2 2 2 2 2 2 2 2 2 2 2 1 2 2 1 1 1 1 1 1 1 1 2 2 1 2 2 2 1 1 1 1 1 1 1 1
0 0 0 0 0 0 0 0 0 1 1 1 1 1 2 2 2 2 2 2 2 2 2 2 2 2 2 2 2 2 2 2 2 2 2 2 2 2 2 2 2 2 2 2 1 1 1 1 1
0 0 0 0 0 0 0 0 0 0 1 1 1 1 2 2 3 3 3 3 3 3 3 3 3 3 2 2 2 3 3 3 3 2 2 2 2 2 2 2 2 2 2 2 2 1 1 1 1
0 0 0 0 0 0 0 0 0 0 1 1 1 1 2 2 3 3 3 3 3 3 3 3 4 4 4 3 3 4 4 4 4 3 3 3 2 2 2 2 2 2 2 2 1 1 1 1 1
0 0 0 0 0 0 0 0 0 0 1 1 1 1 1 2 3 3 3 3 3 3 3 3 4 5 5 4 4 4 4 4 4 4 3 3 3 2 2 2 2 2 2 2 1 1 2 2 2
0 0 0 0 0 0 0 0 0 0 1 1 1 1 1 2 3 4 4 3 3 2 2 3 4 6 6 5 4 4 4 4 4 3 3 3 3 2 2 2 2 2 2 2 2 2 2 2 2
0 0 0 0 0 0 0 0 0 0 1 1 1 1 2 3 3 4 4 4 3 2 2 3 4 6 6 5 4 4 4 3 3 3 3 3 3 3 2 2 2 2 2 2 2 2 2 2 3
0 0 0 0 0 0 0 0 0 1 1 1 1 1 2 3 3 3 4 4 4 3 3 3 4 5 5 5 4 4 4 4 4 4 3 3 3 3 2 2 2 2 2 2 2 2 2 2 2
0 0 0 0 0 0 0 0 0 1 1 1 1 1 2 2 3 3 4 4 3 3 3 3 4 5 5 5 5 5 5 5 5 4 3 2 2 2 2 2 2 2 2 1 2 2 2 2 2
0 0 0 0 0 0 0 0 0 1 1 1 1 1 2 2 2 2 3 3 3 3 3 3 4 5 5 6 6 6 6 5 4 3 2 2 2 2 2 2 2 2 2 1 1 2 2 1 1
0 0 0 0 0 0 0 0 0 1 1 1 1 1 2 2 2 2 3 3 2 2 3 3 4 5 5 5 6 7 6 5 4 3 3 2 2 3 3 2 2 2 2 1 1 1 1 1 1
0 0 0 0 0 0 0 0 0 1 1 1 1 1 2 2 2 3 3 3 3 3 4 4 4 5 5 5 6 7 6 5 4 3 3 3 3 3 3 3 2 2 2 1 1 1 1 1 1
0 0 0 0 0 0 0 0 0 1 1 1 1 1 2 2 2 3 3 3 3 4 5 5 5 5 4 5 6 6 5 4 3 3 3 3 3 3 3 4 3 2 2 1 1 1 1 1 1
Wind_Speed
8 7 5 5 4 6 12 10 9 8 7 7 6 4 6 8 7 11 11 15 15 15 15 14 12 13 13 13 13 13 13 14 13 13 13 13 13 13 13 13 13 13 14 14 14 14 14 14 14
5 4 6 4 2 9 11 9 9 9 8 8 6 5 7 9 9 12 13 15 15 15 15 13 14 13 13 13 13 13 13 13 13 13 12 12 12 12 13 13 13 13 13 13 13 14 14 14 14
5 6 5 1 8 10 11 8 9 8 7 5 5 6 7 8 9 10 13 17 15 14 13 15 13 13 12 12 12 12 12 12 12 12 12 12 12 12 12 12 12 13 13 13 13 13 13 13 13
5 6 3 5 12 11 9 8 7 8 7 5 6 9 8 7 7 12 17 16 15 14 14 16 13 13 12 12 12 11 11 11 12 12 11 11 11 12 12 12 12 12 12 12 12 12 12 13 13
6 3 4 9 11 9 7 6 4 5 5 6 6 10 10 6 10 16 16 16 15 14 14 16 13 13 12 11 11 11 11 10 11 11 11 11 11 11 11 11 11 11 11 12 12 12 12 12 11
4 2 5 9 10 8 7 4 4 6 7 7 8 11 9 8 13 16 15 14 13 13 14 15 13 12 11 11 11 10 10 10 10 10 10 10 10 10 10 10 11 10 11 11 11 11 11 10 10
4 2 7 9 9 8 6 4 4 6 7 7 6 9 10 11 14 14 13 12 12 12 12 13 14 12 11 10 10 10 9 9 9 9 9 9 10 10 9 9 10 10 10 10 10 10 9 9 9
5 1 7 7 7 9 6 4 5 5 8 8 4 7 11 14 14 14 13 11 11 11 11 11 11 11 11 11 10 9 9 9 9 9 9 9 10 9 9 9 9 9 9 9 9 9 9 9 8
6 2 6 6 5 7 6 6 6 5 8 6 4 5 14 19 16 14 13 12 11 10 9 10 10 9 9 9 11 10 9 9 9 9 8 8 7 8 8 10 9 8 8 8 8 8 8 8 9
5 1 7 5 4 5 5 4 6 6 8 7 9 12 18 18 17 16 15 14 13 12 11 9 9 8 8 6 8 7 7 8 6 6 7 5 3 3 5 10 8 8 7 7 7 7 8 7 7
2 2 4 3 2 2 4 5 4 4 5 6 11 17 19 18 16 15 14 13 13 12 11 10 9 8 8 5 5 4 3 5 5 6 5 4 4 4 5 5 7 7 8 6 8 8 5 3 2
2 2 1 1 1 1 3 4 4 1 4 6 12 18 19 18 16 15 14 13 12 12 11 10 9 8 6 5 5 4 4 4 4 5 5 5 3 3 3 3 4 4 3 3 3 2 2 1 2
3 2 1 0 2 1 2 3 1 2 5 9 15 18 18 17 15 13 12 12 11 11 11 10 9 8 7 5 4 4 4 4 4 4 4 3 3 3 3 2 2 3 3 4 3 2 3 3 3
1 1 1 2 2 3 4 3 3 3 8 12 15 16 17 16 15 13 12 12 12 11 11 10 10 9 8 7 5 4 4 3 4 4 5 5 3 3 3 4 3 3 3 2 3 3 3 3 2
3 4 5 4 3 3 4 5 4 6 10 11 13 14 15 15 14 13 13 12 11 11 10 10 10 10 9 8 8 5 5 5 4 4 5 5 5 4 4 3 4 3 3 3 4 4 4 4 4
7 8 7 6 4 4 8 4 5 7 10 10 12 13 13 14 14 13 12 11 10 10 10 10 9 10 10 8 7 5 5 5 5 4 5 6 6 6 5 4 4 4 4 4 4 4 4 4 4
10 9 7 7 4 4 8 3 5 7 9 9 11 12 13 13 14 13 12 12 11 10 10 10 10 10 10 9 7 6 5 5 5 5 5 6 7 7 6 5 3 4 4 4 5 4 4 4 4
9 8 7 6 4 5 8 4 3 6 8 9 10 12 13 14 14 13 12 12 11 10 10 10 10 10 9 7 6 6 6 6 6 6 6 7 7 8 7 6 6 6 5 4 4 3 4 4 5
5 7 6 4 2 5 7 6 4 5 8 9 10 12 12 12 12 12 12 12 11 10 10 10 10 10 8 7 7 7 7 7 7 7 8 8 8 8 7 6 5 6 6 6 6 5 6 6 5
8 9 7 5 3 5 5 6 3 4 6 7 9 10 12 11 12 12 12 12 12 11 11 11 11 11 10 8 6 5 6 6 7 6 7 9 9 9 8 8 7 7 6 7 7 7 6 5 5
11 10 7 5 4 6 7 9 7 5 4 6 8 10 11 12 13 13 13 13 12 12 12 11 11 11 11 9 7 5 5 5 6 7 7 9 10 10 9 9 8 7 7 7 8 8 8 6 5
10 6 5 6 8 6 7 7 7 5 5 6 7 8 10 11 12 12 12 12 13 12 11 11 10 10 10 10 9 9 8 8 8 6 6 7 9 10 10 10 9 8 8 7 9 9 7 8 6
5 4 6 7 8 8 8 9 5 6 6 5 5 7 8 10 11 11 11 11 11 10 10 10 10 10 10 10 9 9 9 8 6 6 6 7 7 9 10 9 9 9 8 9 9 7 9 7 8
7 7 6 7 9 11 8 9 6 4 4 3 3 4 6 7 9 9 9 9 9 9 9 8 9 9 10 10 9 10 10 8 7 7 6 6 5 6 9 9 8 8 8 8 9 9 10 8 8
12 10 8 10 10 9 5 8 5 0 0 2 1 3 5 6 8 9 10 10 9 9 9 8 9 9 9 9 9 9 9 9 9 7 6 6 5 5 7 8 7 7 8 8 8 8 8 9 9
15 15 10 8 9 7 7 8 2 2 1 0 1 2 5 7 7 8 9 9 9 9 9 9 9 8 8 8 8 8 8 7 6 6 5 5 5 5 6 7 7 8 8 9 8 7 8 7 8
14 14 11 9 7 7 6 5 4 5 4 3 3 4 5 7 7 8 8 9 9 8 8 8 8 7 7 7 7 6 6 5 5 4 5 4 4 4 5 6 7 7 7 8 7 7 7 7 8
9 11 7 10 8 10 8 8 6 7 6 5 5 5 5 6 7 8 8 7 7 7 7 7 6 6 6 6 5 4 4 4 3 3 3 3 4 3 4 5 6 6 6 6 6 6 6 6 6
11 12 10 10 9 8 7 5 2 3 4 4 5 5 5 6 7 7 7 7 7 7 7 6 6 5 5 5 4 4 3 3 3 3 3 3 2 3 4 4 4 5 5 5 5 6 6 6 6
14 14 13 11 8 9 9 2 6 2 3 3 4 5 5 5 6 8 8 8 8 7 6 6 5 5 4 4 4 4 3 2 2 2 1 1 1 2 2 2 2 3 3 3 4 5 5 5 5
Wind_Direction
201 202 225 237 214 86 74 72 76 90 84 84 89 63 60 45 34 85 115 131 132 133 129 133 125 122 120 118 117 116 115 113 111 109 107 106 104 104 104 103 103 103 103 103 102 101 101 102 103
197 205 231 238 89 87 77 71 76 74 91 110 100 85 78 70 62 107 131 133 139 134 135 131 127 126 123 121 119 118 116 114 112 110 108 106 105 105 105 105 105 104 105 105 104 104 104 104 104
211 237 260 100 66 69 80 79 85 94 107 115 97 69 58 80 107 125 133 141 140 132 128 125 134 130 127 125 122 120 118 116 114 112 109 107 106 105 105 105 104 105 105 106 106 106 106 106 105
235 223 222 83 80 70 78 91 106 114 107 98 108 93 79 81 117 128 138 145 139 139 138 129 138 134 132 129 127 124 121 117 115 114 111 109 108 107 106 106 105 105 107 108 108 109 108 108 107
243 250 119 91 83 83 87 95 109 98 94 102 105 100 91 85 116 131 144 146 145 143 136 134 140 137 136 134 131 128 125 121 117 116 113 111 110 108 108 107 107 107 109 111 111 110 109 110 110
242 224 101 90 91 93 95 105 118 96 101 110 114 110 90 116 134 142 147 150 146 144 140 132 140 140 139 138 135 132 129 126 124 121 117 114 112 110 110 110 110 110 111 114 114 112 111 112 112
293 78 87 91 98 99 87 99 99 98 109 109 116 108 116 139 141 145 146 148 148 147 141 146 150 148 146 140 139 137 135 132 128 125 121 118 117 115 114 113 113 114 114 116 117 116 114 116 117
300 203 110 97 96 92 100 105 89 97 98 111 126 124 140 146 146 146 146 151 152 153 151 152 155 151 157 152 146 142 140 136 132 130 129 127 127 125 127 132 118 119 120 120 121 119 118 121 125
264 214 101 88 86 97 119 129 111 100 118 121 87 88 126 142 149 152 155 157 159 160 159 163 156 158 162 154 145 156 152 145 151 149 147 168 159 143 154 112 123 127 125 124 123 122 126 137 138
259 113 79 64 49 89 129 137 132 147 140 131 116 110 128 147 157 164 166 167 168 170 172 168 168 160 167 159 154 169 168 157 176 148 161 164 134 129 120 117 132 134 134 135 129 135 166 196 156
262 50 73 89 55 75 143 145 152 168 148 150 148 144 150 158 166 172 174 175 172 175 177 173 171 169 178 166 170 170 164 156 167 158 164 151 160 157 151 151 154 158 168 166 153 183 189 166 111
225 94 27 58 79 164 154 152 160 185 60 107 146 152 158 167 174 178 177 178 174 180 181 179 173 179 184 185 173 177 177 174 171 160 188 167 174 171 152 169 161 169 173 166 182 184 164 169 165
205 144 115 167 200 178 172 163 169 129 106 124 141 155 164 172 176 180 179 180 180 185 186 183 182 182 184 190 205 188 187 183 172 170 180 193 187 181 165 167 191 193 170 177 199 203 182 203 200
154 200 195 160 157 166 190 173 196 133 131 142 153 164 171 175 176 178 182 186 188 191 190 184 188 188 191 193 202 198 198 195 197 189 182 200 205 187 187 186 196 204 203 200 201 203 201 219 218
212 212 184 151 171 166 212 198 198 143 150 157 165 170 173 178 181 185 187 190 192 193 191 189 192 192 198 203 203 203 205 197 205 194 192 204 211 198 210 207 203 206 198 187 210 214 218 217 215
208 214 197 150 174 167 234 205 136 152 170 173 174 174 178 182 189 190 189 192 194 193 191 193 197 194 199 207 210 211 209 204 213 206 197 205 212 214 223 225 217 203 214 209 207 222 220 222 234
204 208 194 157 176 199 238 239 125 166 186 186 182 182 184 185 194 193 193 193 194 194 192 193 201 199 201 202 205 216 208 214 216 212 211 206 211 216 224 232 232 224 223 224 233 207 232 230 237
199 203 196 190 165 221 233 236 166 184 200 198 189 189 189 191 195 193 195 193 192 193 193 195 198 201 201 201 201 213 215 215 216 216 220 219 216 217 226 226 221 231 228 228 238 238 237 250 246
221 218 204 177 161 230 231 242 215 191 204 205 198 194 195 196 191 191 192 194 192 192 193 197 202 196 198 201 205 205 211 215 216 218 216 221 227 222 227 244 222 231 231 233 230 233 229 237 241
220 216 202 169 174 242 234 243 218 204 216 218 212 204 200 195 189 189 190 191 194 194 197 198 201 200 202 206 212 216 221 219 221 227 220 223 226 225 222 229 232 227 231 231 233 231 242 237 225
219 225 214 195 189 217 241 226 205 188 206 213 215 212 206 201 196 190 191 194 196 199 201 201 200 201 206 207 210 215 219 226 222 221 220 222 222 222 229 227 230 229 231 229 229 228 234 241 234
213 216 222 213 225 208 234 247 198 194 208 211 213 211 208 203 199 194 194 196 200 201 200 203 200 201 204 206 214 214 224 230 230 227 225 226 225 226 224 229 228 229 234 231 231 226 232 237 241
213 170 208 219 235 241 220 257 213 185 229 216 208 209 210 203 197 194 194 196 200 199 197 196 199 201 204 210 215 219 229 235 239 236 234 232 230 228 226 225 225 226 234 235 239 237 235 233 241
165 169 186 219 233 235 230 252 243 204 241 236 198 198 199 193 187 186 185 181 186 191 191 189 194 198 203 209 215 222 233 238 242 239 236 232 230 228 224 224 226 229 232 233 235 238 234 237 244
197 200 202 208 218 230 193 242 255 68 309 293 278 185 182 181 177 176 174 173 176 182 183 183 189 195 200 207 214 223 233 239 242 244 241 241 235 226 224 227 227 233 234 234 233 232 238 236 239
206 217 228 230 224 203 183 235 222 127 133 221 209 166 170 169 167 168 169 168 170 176 176 178 183 191 196 204 212 222 230 237 242 243 248 241 241 240 231 228 230 233 234 233 228 232 232 234 239
201 222 241 250 257 246 206 215 214 193 196 182 161 159 161 157 158 160 160 163 165 168 167 172 177 182 188 198 203 212 223 237 253 254 251 253 248 241 229 229 235 237 235 235 233 234 235 235 238
238 214 213 234 232 239 226 227 226 191 195 176 169 163 150 149 151 148 149 152 153 156 157 164 169 171 179 191 198 195 208 219 233 250 258 261 255 247 234 229 235 239 237 231 231 239 235 235 240
195 206 215 229 242 249 240 216 150 188 186 178 165 155 153 151 143 141 142 141 143 150 153 157 158 162 173 182 185 189 195 198 206 229 246 255 256 248 242 232 234 235 236 233 231 237 235 236 240
210 211 208 217 219 240 262 195 115 172 186 170 153 149 146 142 136 137 136 135 140 144 145 144 145 155 163 165 166 166 172 181 187 204 230 238 254 269 257 239 229 232 237 239 238 237 235 238 245